Other Surface Observations
Issued by NWS Tucson, AZ

Home | Current Version | Previous Version | Text Only | Print | Product List | Glossary On
Versions: 1 2 3 4 5 6 7 8 9 10 11 12 13 14 15 16 17 18 19 20 21 22 23 24 25 26 27 28 29 30 31 32 33 34 35 36 37 38 39 40 41 42 43 44 45 46 47 48 49 50
798
SXUS55 KTWC 232215
OSOTWC

WEATHER ROUNDUP FOR SOUTHEAST ARIZONA
NATIONAL WEATHER SERVICE TUCSON AZ
315 PM MST SUN JUL 23 2017

AZZ504>506-514-232315-
LOCATION       SKY/WX    TMP DP  RH WIND       PRES   REMARKS
TUCSON         PTSUNNY   84  68  58 W12       29.95R
DAVIS-MONTHAN  PTSUNNY   89  68  49 SW14      29.93S
CHILDRENS PARK N/A      N/A N/A  42 N5                PIMA CO DEQ
ALVERNON/22ND  N/A       92 N/A N/A W0                PIMA CO DEQ
CHERRY/GLENN   N/A      N/A N/A N/A N/A               PIMA CO DEQ
TANGERINE      N/A      N/A N/A N/A N/A               PIMA CO DEQ
CONTL RANCH    N/A       92  66  43 S10               PIMA CO DEQ
GRANT/1ST      N/A       92  66  42 SW8               PIMA CO DEQ
CRAYCROFT/22ND N/A       91  65  43 N/A               PIMA CO DEQ
GOLFLINKS/KOLB N/A      N/A N/A N/A N/A               PIMA CO DEQ
AJO/12TH       N/A       91  66  44 SW3               PIMA CO DEQ
FAIRGROUNDS    N/A       88 N/A N/A W4                PIMA CO DEQ
SAGUARO        N/A       76  69  79 N11G21            *SABINO CYN
SAN CARLOS     N/A       94  65  39 SE6G10            *SAN CARLOS
GREEN VALLEY   N/A       80  68  67 S7                PIMA CO DEQ
HORSE CAMP CYN N/A       79  63  59 SW13G17           *ARAVAIPA CYN
RINCON MTNS    NOT AVBL
$$

AZZ509>511-232315-
LOCATION       SKY/WX    TMP DP  RH WIND       PRES   REMARKS
SAFFORD        MOSUNNY   93  61  34 CALM      29.89F
STRAY HORSE    N/A       77  57  50 SE3               *
TRAIL CABIN    N/A       81  61  51 SW4               *N OF GRANVILLE
BLACK HILLS    NOT AVBL
DRY LAKE       N/A       76  60  57 S5G10             *NATANES MTNS
NOON CREEK     N/A       83  58  43 N3G10             *PINALENO MTNS
COLUMBINE      N/A       61  55  82 S3                *PINALENO MTNS
GUTHRIE        N/A       79  61  54 S5G11             *SW OF GUTHRIE
$$

AZZ502-503-513-232315-
LOCATION       SKY/WX    TMP DP  RH WIND       PRES   REMARKS
NOGALES        LGT RAIN  73  68  84 SW9       30.05R
SELLS          N/A       91  70  51 NE4               *
SASABE         N/A       71  69  94 NW5G29            *ALTAR VLY
HOPKINS        N/A       66  58  76 W3G12             *SANTA RITA MTNS
CARR CYN       N/A       80  64  59 N2                *W OF HEREFORD
$$

AZZ507-508-512-232315-
LOCATION       SKY/WX    TMP DP  RH WIND       PRES   REMARKS
SIERRA VISTA   CLOUDY    79  63  57 N13       30.07F
DOUGLAS        MOSUNNY   79  65  62 E13       30.02F
EMPIRE MTNS    NOT AVBL
MULESHOE RANCH N/A       80  66  63 N/A               *PRESERVE
HEADQUARTERS   NOT AVBL
$$

.............................NOTES.............................
THIS IS AN AUTOMATED COLLECTIVE WITH MINIMAL QUALITY CONTROL.
PIMA CO DEQ SITES HAVE NONSTANDARD WIND SENSOR HEIGHTS.
PIMA CO DEQ SITES DO NOT REPORT WIND GUSTS.
* INDICATES WIND SENSORS LOCATED AT 20 FEET INSTEAD OF 33 FEET.
..............................KEY..............................
SKY/WX - SKY CONDITION/WEATHER
TMP    - TEMPERATURE IN FAHRENHEIT
DP     - DEWPOINT IN FAHRENHEIT
RH     - RELATIVE HUMIDITY IN PERCENT
WIND   - DIRECTION AND SPEED IN MILES PER HOUR (MPH)
VRB    - VARIABLE WIND DIRECTION
PRES   - MEAN SEA LEVEL PRESSURE IN INCHES OF MERCURY
         F - FALLING PRESSURE   R - RISING PRESSURE
         S - STEADY PRESSURE
VSB    - VISIBILITY IN MILES
HX     - HEAT INDEX IN FAHRENHEIT
WCI    - WIND CHILL INDEX IN FAHRENHEIT
N/A    - NOT AVAILABLE
AFB    - AIR FORCE BASE
         DAVIS-MONTHAN IS DAVIS-MONTHAN AIR FORCE BASE
CYN    - CANYON
MTNS   - MOUNTAINS
NCA    - NATIONAL CONSERVATION AREA
NR     - NEAR
VLY    - VALLEY
CONTL  - CONTINENTAL
PIMA CO DEQ - PIMA COUNTY DEPT OF ENVIRONMENTAL QUALITY



USA.gov is the U.S. government's official web portal to all federal, state and local government web resources and services.